星链-5443 (STARLINK-5443 )

导读

STARLINK-5443是美国SpaceX公司星链(Starlink)卫星互联网项目的一颗卫星,于2022年12月17日发射升空,作为星链星座的组成部分,它运行在近地轨道,为全球偏远地区提供低延迟高速宽带互联网服务,助力实现全球网络覆盖。 星链计划计划发射数万颗卫星构建卫星星座,STARLINK-5443的成功入轨,进一步扩充了星链星座的规模,推动项目向全球覆盖目标迈进,同时也为后续星链卫星技术迭代积累实践经验。

基本信息
目录编号:
54781
目录名称:
STARLINK-5443
国际标识:
2022-175Z
轨道中心:
EARTH
卫星名称:
星链-5443
卫星全名:
星链-5443 (STARLINK-5443 )
卫星状态:
在轨 (已飞行1365 天)
发射日期:
2022-12-17 UTC
国别 :
美国 (US)
星等 :
--
该卫星已列入 空间交会检测服务 Space Conjunction Data Service (SCDS) ,当前飞行风险评估等级: 高风险
轨道信息
数据来源 国际轨道数据 AOE轨道数据
星历时间 2026-09-11T15:44:25+0800
1天前
查看轨道信息
2026-09-07T06:00:00+0800
5天前
查看轨道信息
半长轴 6840.836km 6840.82km
偏心率 0.0001245 0.0000976
轨道倾角 53.159° 53.160°
近地点辐角 93.543° 87.524°
升交点赤经 262.554° 283.152°
平近点角 266.571° 41.913°
近地点 461.847km 462.015km
远地点 463.551km 463.351km
周期 93.848分钟 93.847分钟
每日圈数 15.344017 15.34407
详细信息
固有亮度:
5
最大亮度:
2.5
卫星平台:
Starlink v1.5
覆盖范围:
全球
运营商:
太空探索技术公司
运营商所在国:
美国
制造商(研发单位):
太空探索技术公司
制造商所在国:
美国
使用方式:
暂无
卫星简介
星链(Starlink)计划是由太空探索技术公司(SpaceX)提出的一个巨型低轨卫星互联网星座项目,计划在2019年至2024年间在太空搭建由约1.2万颗卫星组成的“星链”网络,其中1584颗将部署在地球上空550千米处的近地轨道,并从2020年开始工作。该卫星仍在工作。
2D轨道图
3D轨道图
轨道高度分析图
轨道倾角分析图
轨道综合分析图
查看轨道综合分析图
交会数据列表
事件ID 空间交会对象 最接近时刻(TCA) 交会距离 交会风险概率(CRP) 交会风险指数(CRI) 操作
CDM_260913-205905-478106-245321
2026-09-13T
20:59:41+0000
0.097 km
近距离
1.085E-3 极高风险 0.96
CDM_260914-070905-478106-245321
2026-09-14T
07:09:19+0000
0.624 km
远距离
7.392796E-5 中风险 0.72
CDM_260913-052705-478106-323921
2026-09-13T
05:27:30+0000
2.333 km
极远距离
1.771514E-6 低风险 0.4
CDM_260912-094605-478106-494322
2026-09-12T
09:46:52+0000
2.782 km
极远距离
1.439095E-6 低风险 0.38
CDM_260913-192505-478106-245321
2026-09-13T
19:25:54+0000
2.683 km
极远距离
1.028707E-6 低风险 0.35
CDM_260913-223305-478106-245321
2026-09-13T
22:33:29+0000
2.797 km
极远距离
9.71115E-7 极低风险 0.35
CDM_260914-053505-478106-245321
2026-09-14T
05:35:32+0000
2.958 km
极远距离
9.055109E-7 极低风险 0.34
与全量物体交会距离演化趋势
与全量物体交会风险概率演化趋势